Regional Weather Roundup
Issued by NWS

Home | Current Version | Previous Version | Graphics & Text | Print | Product List | Glossary On
Versions: 1 2 3 4 5 6 7 8 9 10 11 12 13 14 15 16 17 18 19 20 21 22 23 24 25 26 27 28 29 30 31 32 33 34 35 36 37 38 39 40 41 42 43 44 45 46 47 48 49 50
908
ASUS43 KDMX 270001
RWRIA

WEATHER ROUNDUP FOR IOWA
NATIONAL WEATHER SERVICE DES MOINES IA
700 PM CDT THU APR 26 2018

NOTE: "FAIR" INDICATES FEW OR NO CLOUDS BELOW 12,000 FEET WITH NO
SIGNIFICANT WEATHER AND/OR OBSTRUCTIONS TO VISIBILITY.

* - THESE STATIONS ARE NOT NWS STATIONS...THUS NOT UNDER NWS
QUALITY CONTROL.  THEY ALSO DO NOT REPORT WEATHER SUCH
AS PRECIPITATION OR FOG.

IAZ001>003-012>014-020>022-031>034-043>046-270100-
   NORTHWEST IOWA

CITY           SKY/WX    TMP DP  RH WIND       PRES   REMARKS
CARROLL *      SUNNY     61  30  31 N22G31    29.97R
CHEROKEE *     SUNNY     58  31  36 N13G26    30.01R
DENISON *      SUNNY     61  28  29 N20G26    30.00R
LE MARS *      SUNNY     61  27  27 NW16G26   30.02S
ORANGE CITY *  SUNNY     61  34  36 NW21G26   30.02S
SHELDON *      SUNNY     57  30  35 N24G31    30.00R
SIOUX CITY     SUNNY     60  26  27 N23G33    30.02R
6HR MIN TEMP:  60; 6HR MAX TEMP:  66;

SPENCER        SUNNY     57  34  41 N21G32    30.00R
6HR MIN TEMP:  57; 6HR MAX TEMP:  63;

STORM LAKE *   SUNNY     57  30  35 N22G29    29.99R
$$

IAZ055>058-069>071-079>083-090>094-270100-
   SOUTHWEST IOWA

CITY           SKY/WX    TMP DP  RH WIND       PRES   REMARKS
ATLANTIC *     SUNNY     63  34  34 N23       29.96R
AUDUBON *      SUNNY     61  30  31 N21G31    29.98R
CLARINDA *     SUNNY     68  39  34 N18G29    29.95S
COUNCIL BLFS * SUNNY     64  30  27 N15G23    29.98R
CRESTON *      SUNNY     64  41  42 N21G31    29.93R
HARLAN  *      SUNNY     63  28  27 N20G31    30.01R
LAMONI         CLOUDY    67  37  33 W13       29.90F
6HR MIN TEMP:  63; 6HR MAX TEMP:  70;

RED OAK *      SUNNY     66  36  32 N15G29    29.96R
SHENANDOAH *   SUNNY     68  39  34 N21G30    29.95R
$$

IAZ047>049-059>061-072>074-084-270100-
   CENTRAL IOWA

CITY           SKY/WX    TMP DP  RH WIND       PRES   REMARKS
AMES           SUNNY     63  40  42 N20G30    29.91R
6HR MIN TEMP:  63; 6HR MAX TEMP:  73;

ANKENY *       SUNNY     64  43  45 NW20G28   29.91R
BOONE *        SUNNY     61  36  39 NW26G32   29.92R
CHARITON *     PTSUNNY   68  34  28 W10       29.88F
DES MOINES     MOSUNNY   66  41  40 NW14G29   29.90R
6HR MIN TEMP:  66; 6HR MAX TEMP:  74;

GRINNELL*      MOSUNNY   69  37  30 NW24      29.86S
KNOXVILLE *    CLOUDY    68  30  24 W12       29.85F
MARSHALLTOWN   SUNNY     63  44  50 NW24G30   29.87R
6HR MIN TEMP:  63; 6HR MAX TEMP:  72;

NEWTON *       SUNNY     64  41  42 N24G31    29.87R
PELLA *        PTSUNNY   69  31  24 W10       29.87S
$$

IAZ004>006-015-016-023>025-035-036-270100-
   NORTH CENTRAL IOWA

CITY           SKY/WX    TMP DP  RH WIND       PRES   REMARKS
ALGONA *       SUNNY     55  32  41 NW23G30   29.96R
CLARION *      SUNNY     57  32  38 NW24G33   29.93R
ESTHERVILLE    SUNNY     53  35  50 N24G31    29.98R
6HR MIN TEMP:  53; 6HR MAX TEMP:  59;

FORT DODGE *   SUNNY     58  32  37 N13G23    29.96R
MASON CITY     SUNNY     58  36  43 NW24      29.91R
6HR MIN TEMP:  58; 6HR MAX TEMP:  67;

FOREST CITY *  FAIR      57  32  38 NW18G30   29.92R
IOWA FALLS *   FAIR      62  39  43 NW24      29.91R
$$

IAZ007>011-017>019-026>030-037>042-050>054-066-270100-
   NORTHEAST IOWA

CITY           SKY/WX    TMP DP  RH WIND       PRES   REMARKS
CEDAR RAPIDS   FAIR      68  27  21 W16       29.82S
6HR MIN TEMP:  68; 6HR MAX TEMP:  73; 6HR PCP: TRACE;

CHARLES CITY * FAIR      61  39  44 NW17      29.87R
CLINTON *      FAIR      68  29  23 W12       29.82F
DECORAH *      FAIR      63  39  42 NW9G20    29.82S
DUBUQUE        FAIR      66  28  24 W12       29.80F
6HR MIN TEMP:  64; 6HR MAX TEMP:  70;

MONTICELLO *   FAIR      70  25  18 W15G22    29.80F
OELWEIN *      FAIR      63  41  45 NW21G28   29.84R
WATERLOO       FAIR      61  42  49 NW15G24   29.85R
6HR MIN TEMP:  61; 6HR MAX TEMP:  72;

$$

IAZ064-065-067-068-078-270100-
   EAST CENTRAL IOWA

CITY           SKY/WX    TMP DP  RH WIND       PRES   REMARKS
DAVENPORT      FAIR      69  25  19 W15G22    29.84F
6HR MIN TEMP:  65; 6HR MAX TEMP:  71;

IOWA CITY      FAIR      68  30  24 W10       29.84F
6HR MIN TEMP:  67; 6HR MAX TEMP:  72;

MUSCATINE *    FAIR      70  27  19 W12       29.84S
QUAD CITIES    FAIR      69  29  22 W10       29.82F
6HR MIN TEMP:  67; 6HR MAX TEMP:  72;

$$

IAZ062-063-075>077-085>089-095>099-270100-
   SOUTHEAST IOWA

CITY           SKY/WX    TMP DP  RH WIND       PRES   REMARKS
BURLINGTON     CLOUDY    70  28  21 W8        29.85S
6HR MIN TEMP:  66; 6HR MAX TEMP:  71;

FAIRFIELD *    MOSUNNY   68  25  19 W8        29.85F
FORT MADISON * CLEAR     70  32  24 W8        29.87S
KEOKUK *       PTCLDY    68  32  26 W9G17     29.86S
OSKALOOSA *    FAIR      70  28  20 W13       29.86F
CENTERVILLE *  FAIR      68  28  22 W9        29.90S
OTTUMWA        MOSUNNY   66  31  27 W7        29.86S
6HR MIN TEMP:  66; 6HR MAX TEMP:  72;

WASHINGTON *   PTCLDY    68  28  22 W8        29.86S
$$

ABBREVIATIONS USED IN REMARKS
   TC - TEMPERATURES IN CELSIUS
  WCI - WIND CHILL INDEX
   HX - HEAT INDEX
  VSB - VISIBILITY
$$





USA.gov is the U.S. government's official web portal to all federal, state and local government web resources and services.